Wind_Speed
100 107 108 111 116 114 111 103 94 85 77 72 70 66 65 62 56 45 57 61 72 76 83 90 91 91 86 90 96 96 99 100 103 104 107 107 104 108 111 113 109 80 66
105 109 112 107 104 108 103 90 85 81 77 70 57 54 63 57 52 54 65 73 82 86 85 85 85 86 94 91 93 99 101 104 109 113 111 113 112 118 104 101 80 67 62
109 110 107 99 93 85 82 72 70 70 71 67 55 52 68 70 64 68 72 81 81 80 81 86 90 91 93 99 104 109 110 110 114 115 110 111 113 111 102 86 66 58 57
109 105 98 87 77 70 62 60 60 62 62 60 53 49 54 75 76 82 83 84 86 88 94 93 97 100 104 105 108 111 110 112 115 114 115 108 99 91 73 63 57 54 52
102 94 86 76 66 59 56 53 53 55 56 54 50 48 51 64 87 91 92 98 98 100 103 100 100 102 106 112 111 112 112 113 112 108 103 97 80 73 59 53 52 50 48
94 86 76 67 59 52 49 47 48 50 52 52 47 47 48 54 73 88 98 99 99 103 106 105 100 103 104 109 108 109 112 108 104 93 97 89 76 59 48 47 48 47 43
87 78 69 59 51 49 44 43 42 46 47 46 45 47 47 48 54 64 83 96 98 103 104 99 95 98 102 105 105 102 100 97 94 76 72 64 59 49 44 45 45 43 41
79 68 61 52 45 44 41 41 39 41 41 45 44 43 43 46 49 51 51 58 73 82 89 88 87 84 83 85 88 89 90 73 67 62 59 52 48 44 43 45 44 43 41
69 61 54 46 42 41 39 37 36 37 39 42 40 41 41 41 43 44 44 47 51 56 59 64 69 71 72 75 78 72 62 58 58 60 57 49 45 43 43 44 43 43 43
60 55 46 41 40 38 36 34 33 34 35 36 36 38 39 39 39 41 41 42 42 42 44 47 51 53 57 61 61 57 55 54 54 53 50 45 43 43 44 45 44 44 46
56 47 41 37 36 35 34 32 32 32 31 33 33 35 37 36 34 36 36 37 36 35 37 40 43 46 48 51 51 51 50 51 51 49 47 42 42 44 45 46 46 45 47
50 43 37 34 33 33 32 31 30 29 30 32 32 34 34 33 32 31 31 33 29 31 34 37 39 39 39 40 40 43 44 43 43 43 41 41 44 45 47 47 46 45 46
46 41 35 33 31 31 31 31 30 31 31 34 34 34 34 33 32 29 32 33 31 33 34 34 34 34 35 36 38 39 40 41 41 41 41 42 46 48 50 50 48 47 46
43 40 35 33 31 30 31 32 32 33 35 37 36 35 35 36 36 34 37 37 37 37 36 37 37 38 38 38 39 40 41 42 42 42 43 46 48 50 52 52 51 49 50
40 39 35 31 31 29 32 32 34 35 38 41 39 39 39 39 39 40 41 40 40 41 40 39 39 39 39 40 42 44 45 46 48 49 50 52 53 54 55 55 54 53 51
41 39 37 32 32 32 33 36 39 39 39 41 43 46 44 42 41 42 41 41 42 43 41 39 39 39 38 38 39 41 44 46 47 48 50 51 51 52 52 52 51 50 49
41 39 40 37 36 34 38 38 41 42 42 44 45 46 47 45 44 43 42 44 44 43 40 39 40 39 39 39 39 39 40 42 44 46 47 47 47 47 48 49 50 51 51
39 40 40 39 38 39 39 41 40 43 46 47 46 45 44 45 45 46 46 45 45 44 44 43 42 41 40 41 41 42 43 44 44 45 46 47 48 48 49 50 52 54 55
37 41 40 40 41 40 42 42 44 46 47 44 41 44 47 49 49 48 47 47 46 47 47 47 46 47 47 47 47 47 47 48 49 50 49 49 50 51 52 54 55 56 57
38 39 40 39 40 41 41 42 43 45 45 45 42 49 50 49 48 50 52 53 52 50 50 51 50 51 52 52 51 51 52 53 54 55 56 56 57 56 56 56 57 58 60
38 39 39 40 40 40 41 42 43 44 44 45 45 46 48 51 53 54 54 54 54 53 51 51 53 55 56 55 54 55 56 57 57 58 59 60 62 63 63 63 62 61 61
38 37 37 39 40 41 41 42 43 44 44 45 47 49 50 53 57 59 59 57 57 56 54 55 56 57 58 58 58 59 60 60 61 62 62 64 65 65 67 69 69 69 69
38 38 39 39 40 41 42 42 41 42 46 48 50 52 53 55 57 59 60 59 58 58 57 57 58 59 60 60 60 61 62 63 64 64 64 64 64 66 67 69 71 72 74
37 38 38 38 40 39 39 39 40 40 41 42 44 45 47 48 49 51 54 56 57 58 59 60 61 62 62 63 63 64 66 67 67 67 67 67 67 68 69 70 71 73 74
37 36 36 34 34 35 36 37 38 39 40 41 42 43 44 46 47 48 50 53 55 56 58 60 61 62 64 65 66 67 67 68 69 69 69 69 70 71 72 74 76 76 77
36 36 36 37 38 38 39 39 40 41 42 43 44 45 46 47 48 50 51 53 54 57 58 60 61 63 64 67 68 68 69 69 70 71 72 73 74 75 75 75 76 78 77
Wind_Direction
300 300 304 306 303 300 297 296 292 287 283 281 278 272 267 267 268 248 243 245 244 252 252 256 262 261 262 263 268 267 270 270 271 272 280 281 280 286 293 295 298 298 294
301 301 303 302 299 296 294 291 289 289 286 283 273 256 250 251 251 246 244 243 242 247 249 253 255 260 262 265 266 267 269 270 273 276 279 279 281 290 295 296 294 292 286
301 302 304 303 299 293 287 282 279 276 276 276 267 253 236 236 231 237 241 235 242 243 247 253 258 260 261 264 265 268 270 272 273 274 278 282 288 291 290 293 291 283 276
303 306 304 302 299 291 283 277 272 269 269 268 266 256 240 229 229 232 235 236 241 247 247 254 254 257 261 264 266 268 270 272 276 280 282 287 290 289 291 288 284 275 269
306 306 304 303 297 290 283 276 269 266 266 266 260 251 242 236 229 230 235 238 243 246 251 253 255 256 259 262 266 269 271 273 277 282 286 288 287 287 286 280 273 269 268
309 307 306 300 293 285 278 270 265 262 262 262 261 255 246 242 236 232 235 240 244 247 251 257 254 256 260 264 268 270 273 279 282 289 288 285 287 282 276 271 269 267 269
308 307 303 297 290 282 273 266 260 259 261 261 259 257 251 243 242 239 238 241 246 248 254 259 260 262 264 267 268 270 274 281 286 287 285 284 280 275 268 268 271 272 274
306 303 298 293 284 276 272 267 263 260 258 260 263 262 257 255 252 250 250 249 248 252 256 259 262 267 268 268 270 272 277 281 281 280 277 277 270 265 265 268 271 274 277
305 300 295 291 281 276 273 270 265 260 257 259 260 261 260 258 259 261 259 256 250 248 252 254 258 261 264 266 269 272 274 276 274 272 272 270 265 264 266 270 273 277 281
300 298 295 287 281 278 274 269 264 257 254 252 252 253 254 251 253 255 256 259 260 261 261 259 259 258 258 259 263 267 268 267 269 268 266 264 264 265 268 271 274 277 283
299 297 290 286 282 278 273 266 260 256 254 247 249 249 250 252 248 252 257 258 258 262 263 262 260 257 257 258 260 263 264 267 266 264 265 263 263 266 269 271 275 279 285
297 294 289 285 278 273 269 260 255 251 248 246 248 250 256 253 251 249 255 257 258 263 262 261 260 259 258 257 257 257 259 261 261 261 263 262 263 267 268 270 274 279 285
295 292 289 284 275 269 265 257 253 245 244 243 248 250 252 255 252 253 256 257 254 253 255 257 256 256 256 257 257 258 260 261 263 264 265 265 265 266 267 270 274 278 284
292 289 287 280 271 266 262 253 244 240 238 244 245 245 247 250 252 253 253 257 259 260 258 259 259 260 262 262 262 262 263 265 267 268 267 266 266 266 267 269 273 277 281
286 283 285 274 272 262 257 251 243 243 241 243 247 250 251 251 250 249 253 257 259 261 264 265 265 265 264 264 266 266 267 267 266 267 268 268 269 268 269 271 273 276 275
282 280 281 273 265 257 254 243 244 245 243 244 245 248 252 250 248 250 253 256 259 264 267 268 269 268 266 265 266 266 266 267 267 268 269 269 270 270 270 270 270 270 268
278 276 274 273 263 255 253 248 242 247 247 249 249 250 250 251 249 250 253 258 262 264 267 267 267 265 265 266 268 268 268 268 269 268 268 268 269 269 269 268 267 267 266
274 271 270 270 265 257 251 253 252 249 250 254 255 254 254 253 253 253 254 257 262 266 268 269 271 271 270 269 268 268 269 269 269 271 271 271 270 269 269 268 267 266 265
274 270 267 262 261 258 253 250 251 254 256 257 256 255 254 254 256 259 261 263 265 265 268 271 272 272 272 274 273 272 271 271 271 271 272 271 271 270 269 269 268 268 267
271 270 267 263 259 257 256 253 252 253 256 254 256 252 254 257 261 262 263 265 264 264 265 266 268 270 270 270 272 272 272 273 274 274 271 270 270 270 270 270 271 271 271
269 266 262 261 260 257 254 256 253 252 254 251 254 255 254 256 259 262 262 264 265 265 265 267 268 268 270 272 271 271 272 272 273 274 273 272 270 270 270 270 271 272 272
268 265 261 257 257 256 255 254 254 253 254 253 252 252 252 254 256 261 263 264 265 266 267 267 267 269 271 271 272 272 272 273 274 273 273 273 273 271 270 270 270 271 273
266 263 262 259 260 259 257 257 257 255 251 250 251 253 255 256 259 262 265 266 267 267 267 268 270 271 272 272 272 272 273 273 274 275 275 274 273 272 272 271 271 271 272
268 267 265 264 266 266 264 263 262 264 264 262 261 262 262 262 262 262 262 263 264 265 267 268 269 270 271 271 273 274 275 276 276 277 277 276 275 274 274 274 275 275 276
268 267 266 265 265 264 264 264 265 264 263 263 264 264 265 265 266 266 265 265 265 267 268 269 270 271 273 273 273 274 275 275 275 276 277 277 277 277 277 278 278 279 279
269 267 265 263 263 262 262 261 261 262 263 264 265 266 266 266 267 267 267 267 267 267 268 269 270 271 272 273 274 275 276 276 277 277 278 278 279 280 280 279 279 279 280
Height
10404 10390 10375 10363 10345 10333 10323 10314 10308 10303 10302 10304 10304 10305 10307 10312 10319 10331 10339 10345 10350 10350 10350 10350 10350 10350 10350 10347 10347 10344 10344 10343 10342 10340 10339 10337 10336 10335 10333 10328 10319 10312 10306
10377 10363 10347 10340 10330 10307 10294 10288 10280 10272 10270 10276 10283 10287 10290 10297 10306 10312 10317 10322 10325 10327 10329 10329 10328 10328 10329 10329 10326 10324 10323 10321 10322 10321 10320 10318 10319 10316 10310 10305 10299 10295 10293
10345 10333 10316 10305 10292 10280 10268 10264 10259 10256 10253 10255 10262 10269 10272 10280 10286 10290 10292 10294 10301 10305 10307 10308 10308 10307 10306 10307 10307 10304 10303 10301 10299 10299 10300 10299 10298 10296 10289 10284 10280 10279 10280
10310 10296 10279 10268 10261 10252 10246 10240 10237 10236 10235 10236 10241 10246 10250 10257 10264 10270 10272 10277 10281 10284 10285 10287 10286 10287 10285 10286 10286 10284 10283 10283 10282 10283 10282 10280 10281 10274 10268 10265 10264 10266 10267
10279 10264 10251 10240 10234 10228 10221 10219 10218 10217 10216 10218 10222 10227 10232 10235 10240 10248 10250 10255 10260 10260 10263 10266 10267 10269 10265 10263 10264 10264 10264 10266 10268 10267 10264 10259 10259 10254 10251 10252 10252 10254 10254
10247 10235 10225 10218 10214 10209 10203 10202 10201 10200 10200 10202 10204 10208 10214 10217 10221 10227 10232 10235 10241 10237 10240 10244 10250 10249 10249 10244 10246 10246 10247 10249 10247 10243 10245 10238 10241 10238 10237 10240 10241 10241 10241
10222 10212 10204 10198 10193 10187 10187 10186 10187 10186 10186 10188 10190 10192 10196 10202 10204 10207 10214 10220 10221 10223 10224 10225 10228 10228 10230 10231 10229 10231 10231 10231 10230 10229 10222 10223 10226 10224 10225 10228 10228 10228 10226
10200 10192 10186 10180 10176 10172 10171 10171 10172 10172 10174 10173 10175 10178 10183 10184 10187 10191 10197 10200 10202 10204 10205 10207 10209 10209 10212 10210 10212 10213 10214 10214 10212 10209 10207 10210 10211 10210 10212 10214 10215 10215 10212
10179 10173 10167 10163 10160 10158 10158 10157 10158 10159 10161 10162 10164 10166 10168 10170 10172 10173 10177 10180 10185 10187 10189 10190 10190 10192 10192 10193 10195 10196 10198 10197 10196 10194 10194 10198 10198 10198 10200 10202 10202 10201 10199
10163 10156 10152 10148 10146 10145 10145 10145 10146 10147 10148 10150 10152 10155 10157 10160 10161 10162 10165 10166 10168 10171 10174 10175 10175 10177 10178 10179 10180 10182 10183 10182 10182 10182 10184 10185 10186 10187 10188 10190 10190 10188 10186
10145 10142 10138 10136 10134 10133 10132 10133 10135 10136 10138 10141 10142 10144 10145 10149 10151 10152 10155 10156 10157 10158 10159 10161 10162 10163 10164 10165 10166 10167 10168 10169 10170 10171 10173 10174 10174 10175 10176 10177 10177 10176 10174
10130 10129 10126 10124 10123 10123 10122 10123 10124 10125 10128 10130 10132 10134 10137 10138 10141 10143 10145 10147 10147 10149 10150 10151 10152 10152 10153 10154 10155 10155 10157 10158 10158 10159 10161 10162 10163 10164 10164 10164 10165 10164 10162
10116 10114 10114 10114 10113 10112 10113 10113 10115 10117 10119 10121 10123 10126 10128 10129 10132 10134 10136 10137 10139 10140 10142 10143 10142 10143 10144 10146 10145 10146 10147 10148 10148 10148 10150 10151 10151 10152 10151 10152 10152 10152 10152
10103 10101 10102 10103 10102 10103 10103 10104 10106 10108 10111 10113 10115 10118 10120 10121 10123 10125 10127 10129 10130 10131 10133 10133 10134 10134 10135 10136 10135 10136 10136 10137 10137 10138 10138 10138 10139 10139 10138 10138 10138 10139 10139
10091 10090 10091 10092 10091 10093 10094 10095 10097 10099 10102 10105 10106 10108 10110 10112 10114 10116 10118 10119 10121 10121 10122 10122 10123 10124 10125 10125 10125 10125 10124 10124 10124 10124 10124 10124 10124 10124 10123 10124 10125 10126 10125
10078 10078 10078 10081 10081 10083 10084 10085 10087 10089 10091 10094 10096 10098 10100 10102 10104 10105 10108 10109 10110 10111 10111 10112 10113 10112 10112 10113 10112 10111 10111 10110 10110 10110 10110 10109 10109 10109 10109 10109 10109 10110 10111
10065 10066 10066 10067 10069 10070 10072 10074 10075 10077 10079 10081 10084 10086 10088 10090 10091 10093 10096 10097 10097 10099 10100 10101 10101 10101 10100 10099 10098 10098 10098 10097 10097 10096 10096 10095 10095 10094 10094 10094 10094 10095 10096
10053 10053 10054 10055 10056 10058 10059 10061 10063 10065 10067 10069 10072 10074 10075 10077 10079 10080 10081 10082 10083 10085 10086 10087 10088 10088 10087 10087 10086 10086 10085 10084 10083 10082 10082 10081 10081 10080 10079 10078 10078 10079 10079
10042 10041 10041 10043 10044 10045 10047 10048 10051 10052 10054 10056 10059 10061 10062 10063 10065 10066 10068 10068 10070 10071 10071 10072 10073 10073 10073 10073 10072 10072 10071 10070 10069 10068 10067 10066 10066 10066 10064 10063 10063 10062 10061
10027 10029 10029 10030 10031 10032 10034 10036 10037 10039 10042 10044 10045 10046 10048 10049 10050 10051 10051 10052 10053 10055 10056 10056 10057 10057 10057 10058 10058 10057 10056 10055 10053 10052 10051 10050 10049 10049 10048 10047 10046 10045 10044
10015 10016 10017 10017 10018 10019 10020 10022 10023 10025 10027 10029 10031 10033 10033 10034 10034 10034 10034 10035 10036 10038 10040 10041 10041 10041 10040 10041 10041 10041 10040 10039 10037 10035 10033 10032 10032 10030 10029 10028 10027 10026 10025
10003 10004 10004 10005 10006 10006 10006 10008 10010 10011 10013 10015 10016 10017 10018 10019 10018 10018 10018 10019 10019 10020 10023 10024 10024 10024 10024 10024 10024 10023 10023 10021 10019 10017 10016 10014 10012 10011 10009 10007 10006 10005 10004
9991 9992 9992 9992 9992 9992 9993 9994 9996 9997 9998 9999 10000 10001 10001 10003 10003 10003 10003 10004 10004 10004 10005 10006 10006 10006 10006 10005 10005 10004 10003 10001 9999 9998 9996 9994 9992 9990 9988 9986 9984 9982 9980
9980 9980 9980 9980 9981 9981 9982 9983 9984 9985 9986 9987 9988 9988 9988 9988 9989 9989 9988 9987 9988 9988 9988 9988 9987 9987 9987 9986 9985 9984 9982 9980 9978 9976 9974 9972 9969 9967 9965 9964 9961 9959 9957
9968 9968 9968 9969 9970 9970 9970 9971 9972 9973 9974 9974 9974 9974 9974 9974 9974 9974 9973 9972 9972 9971 9971 9970 9969 9969 9968 9967 9965 9963 9962 9960 9957 9955 9952 9950 9948 9945 9943 9940 9936 9934 9931
9956 9956 9956 9957 9957 9957 9958 9958 9958 9958 9959 9959 9959 9958 9958 9958 9957 9957 9957 9956 9956 9955 9954 9953 9951 9950 9949 9946 9944 9942 9940 9937 9935 9932 9929 9927 9925 9921 9918 9915 9913 9909 9906